This is the latest recevied weather packets stored in our database for station/object N1IJV-10. If no packets are shown the sender has not sent any weather packets the latest 1 day(s).
| Time | Temp. | Humidity | Pressure | Rain* | Wind** | Luminosity | Snow |
|---|---|---|---|---|---|---|---|
| 1778066275 | 2.78° C | 89% | 1012.2 hPa | 0 mm | - | 20 W/m² | - |
| 1778065973 | 2.78° C | 89% | 1011.7 hPa | 0 mm | - | 17 W/m² | - |
| 1778065670 | 2.78° C | 88% | 1011.7 hPa | 0 mm | - | 13 W/m² | - |
| 1778064458 | 2.78° C | 87% | 1011.8 hPa | 0 mm | - | 1 W/m² | - |
| 1778064156 | 2.78° C | 87% | 1011.6 hPa | 0 mm | - | 0 W/m² | - |
| 1778063550 | 2.78° C | 86% | 1011.3 hPa | 0 mm | - | 0 W/m² | - |
| 1778063248 | 3.33° C | 86% | 1011.2 hPa | 0 mm | - | 0 W/m² | - |
| 1778062642 | 3.33° C | 85% | 1011 hPa | 0 mm | - | 0 W/m² | - |
| 1778062339 | 3.33° C | 84% | 1010.9 hPa | 0 mm | - | 0 W/m² | - |
| 1778062037 | 3.33° C | 83% | 1011 hPa | 0 mm | - | 0 W/m² | - |
| 1778061735 | 3.33° C | 82% | 1010.8 hPa | 0 mm | - | 0 W/m² | - |
| 1778061433 | 3.33° C | 83% | 1011 hPa | 0 mm | - | 0 W/m² | - |
| 1778059919 | 3.89° C | 81% | 1011.1 hPa | 0 mm | - | 0 W/m² | - |
| 1778059314 | 4.44° C | 82% | 1011.1 hPa | 0 mm | - | 0 W/m² | - |
| 1778058407 | 4.44° C | 82% | 1010.9 hPa | 0 mm | - | 0 W/m² | - |
| 1778056285 | 4.44° C | 76% | 1010.8 hPa | 0 mm | - | 0 W/m² | - |
| 1778055677 | 4.44° C | 78% | 1010.7 hPa | 0 mm | - | 0 W/m² | - |
| 1778055073 | 4.44° C | 76% | 1010.8 hPa | 0 mm | - | 0 W/m² | - |
| 1778054467 | 5° C | 74% | 1010.8 hPa | 0 mm | - | 0 W/m² | - |
| 1778053861 | 5° C | 71% | 1010.4 hPa | 0 mm | - | 0 W/m² | - |
| 1778053256 | 5.56° C | 70% | 1010.6 hPa | 0 mm | - | 0 W/m² | - |
| 1778052045 | 6.67° C | 64% | 1010.2 hPa | 0 mm | - | 0 W/m² | - |
| 1778051743 | 6.67° C | 61% | 1010.3 hPa | 0 mm | - | 0 W/m² | - |
| 1778051440 | 6.11° C | 64% | 1010.5 hPa | 0 mm | - | 0 W/m² | - |
| 1778051137 | 6.11° C | 67% | 1010.5 hPa | 0 mm | - | 0 W/m² | - |
* Rain latest hour (hover to see other rain measurements)
** Current wind speed in m/s (hover to see current wind gust speed)